Simultaneous Nadir Overpasses (SNOs) Predictions

Prediction of SNOs over PacNW region [( 10.00, 139.50) to ( 22.70, 165.60)] between AQUA and NPP Satellites:

Table of predicted SNOs over PacNW region for the next 30.0 days since TLE Epoch: 8/24/2013
Index Date (AQUA) Time (AQUA) AQUA Lat,Lon Date (NPP) Time (NPP) NPP Lat,Lon Distance(km) Time Diff (sec)
1 08/25/2013 15:59:32 22.63, 147.44 08/25/2013 16:02:10 23.26, 144.54 305.15 158
2 09/02/2013 15:09:56 22.59, 159.83 09/02/2013 15:11:35 23.18, 157.20 277.51 99
3 09/05/2013 03:31:42 22.64, 147.54 09/05/2013 03:28:13 23.83, 145.40 254.91 209
4 09/10/2013 15:59:09 22.62, 147.52 09/10/2013 16:02:27 23.29, 144.52 316.14 198
5 09/13/2013 02:42:01 22.64, 159.95 09/13/2013 02:38:32 27.07, 157.24 563.74 209
6 09/18/2013 15:09:25 22.59, 159.94 09/18/2013 15:11:51 23.18, 157.18 291.25 146




NCC Satellite Simultaneous Nadir Overpasses (SNOs) Prediction Service
